User: anonymous   Login
Location: Onan Observatory
(44.8103°N, 93.9397°W)
Time: 18:32:03
(UTC-06:00)
Language:

Iridium 90 - Orbit

View from above orbital plane
View from above orbital plane
View from above satellite
View from above satellite

Ground track
Ground track

The orbit data is extracted from the following two-line orbital elements,

1 27373U 02005B   15058.22491533  .00000543  00000-0  15656-3 0  9995
2 27373 086.4515 341.5744 0001539 064.4261 295.7099 14.42945373690088
Epoch (UTC): 27 February 2015 05:23:52
Eccentricity: 0.0001539
inclination: 86.4515°
perigee height: 747 km
apogee height: 750 km
right ascension of ascending node: 341.5744°
argument of perigee: 64.4261°
revolutions per day: 14.42945373
mean anomaly at epoch: 295.7099°
orbit number at epoch: 69008

The dashed part of the orbit path shows where the satellite is in the earth's shadow,  

DLR